Time,TemperatureF,DewpointF,PressureIn,WindDirection,WindDirectionDegrees,WindSpeedMPH,WindSpeedGustMPH,Humidity,HourlyPrecipIn,Conditions,Clouds,dailyrainin,SolarRadiationWatts/m^2,SoftwareType,DateUTC
2013-05-18 00:03:00,80.0,72.0,-100.00,SE,145,6.0,-999.0,77,0.00,,,-99.99,0.000000,,2013-05-18 04:03:00,
2013-05-18 00:12:00,80.0,72.0,-100.00,SE,143,5.0,-999.0,77,0.00,,,-99.99,0.000000,,2013-05-18 04:12:00,
2013-05-18 00:23:00,80.0,72.0,-100.00,SE,143,5.0,-999.0,77,0.00,,,-99.99,0.000000,,2013-05-18 04:23:00,
2013-05-18 00:33:00,80.0,72.0,-100.00,SE,143,5.0,-999.0,78,0.00,,,-99.99,0.000000,,2013-05-18 04:33:00,
2013-05-18 00:43:00,80.0,72.0,-100.00,SSE,152,5.0,-999.0,78,0.00,,,-99.99,0.000000,,2013-05-18 04:43:00,
2013-05-18 00:52:00,80.0,72.0,-100.00,SSE,152,5.0,-999.0,78,0.00,,,-99.99,0.000000,,2013-05-18 04:52:00,
2013-05-18 01:02:00,79.0,72.0,-100.00,South,170,4.0,-999.0,79,0.00,,,-99.99,0.000000,,2013-05-18 05:02:00,
2013-05-18 01:13:00,79.0,72.0,-100.00,SSE,153,3.0,-999.0,79,0.00,,,-99.99,0.000000,,2013-05-18 05:13:00,
2013-05-18 01:22:00,79.0,72.0,-100.00,SSE,153,3.0,-999.0,79,0.00,,,-99.99,0.000000,,2013-05-18 05:22:00,
2013-05-18 01:32:00,79.0,72.0,-100.00,SSE,147,4.0,-999.0,80,0.00,,,-99.99,0.000000,,2013-05-18 05:32:00,
2013-05-18 01:42:00,79.0,72.0,-100.00,SE,135,3.0,-999.0,79,0.00,,,-99.99,0.000000,,2013-05-18 05:42:00,
2013-05-18 01:52:00,79.0,72.0,-100.00,SE,135,3.0,-999.0,79,0.00,,,-99.99,0.000000,,2013-05-18 05:52:00,
2013-05-18 02:02:00,78.0,72.0,-100.00,SE,129,2.0,-999.0,81,0.00,,,-99.99,0.000000,,2013-05-18 06:02:00,
2013-05-18 02:11:00,78.0,72.0,-100.00,SE,137,3.0,-999.0,81,0.00,,,-99.99,0.000000,,2013-05-18 06:11:00,
2013-05-18 02:22:00,78.0,72.0,-100.00,SE,137,3.0,-999.0,81,0.00,,,-99.99,0.000000,,2013-05-18 06:22:00,
2013-05-18 02:32:00,78.0,72.0,-100.00,SE,137,3.0,-999.0,81,0.00,,,-99.99,0.000000,,2013-05-18 06:32:00,
2013-05-18 02:42:00,78.0,72.0,-100.00,SE,141,3.0,-999.0,81,0.00,,,-99.99,0.000000,,2013-05-18 06:42:00,
2013-05-18 02:52:00,78.0,72.0,-100.00,SE,141,3.0,-999.0,81,0.00,,,-99.99,0.000000,,2013-05-18 06:52:00,
2013-05-18 03:01:00,78.0,72.0,-100.00,SE,140,3.0,-999.0,81,0.00,,,-99.99,0.000000,,2013-05-18 07:01:00,
2013-05-18 03:12:00,78.0,72.0,-100.00,SE,131,2.0,-999.0,82,0.00,,,-99.99,0.000000,,2013-05-18 07:12:00,
2013-05-18 03:21:00,78.0,72.0,-100.00,SE,131,2.0,-999.0,82,0.00,,,-99.99,0.000000,,2013-05-18 07:21:00,
2013-05-18 03:32:00,78.0,72.0,-100.00,SSE,150,3.0,-999.0,83,0.00,,,-99.99,0.000000,,2013-05-18 07:32:00,
2013-05-18 03:42:00,77.0,70.0,-100.00,SSE,151,2.0,-999.0,80,0.00,,,-99.99,0.000000,,2013-05-18 07:42:00,
2013-05-18 03:52:00,77.0,70.0,-100.00,SSE,151,2.0,-999.0,80,0.00,,,-99.99,0.000000,,2013-05-18 07:52:00,
2013-05-18 04:01:00,77.0,72.0,-100.00,ESE,117,1.0,-999.0,84,0.00,,,-99.99,0.000000,,2013-05-18 08:01:00,
2013-05-18 04:11:00,77.0,72.0,-100.00,ESE,115,1.0,-999.0,86,0.00,,,-99.99,0.000000,,2013-05-18 08:11:00,
2013-05-18 04:21:00,77.0,72.0,-100.00,ESE,115,1.0,-999.0,86,0.00,,,-99.99,0.000000,,2013-05-18 08:21:00,
2013-05-18 04:32:00,77.0,73.0,-100.00,NNW,342,1.0,-999.0,87,0.00,,,-99.99,0.000000,,2013-05-18 08:32:00,
2013-05-18 04:42:00,76.0,72.0,-100.00,ENE,76,1.0,-999.0,88,0.00,,,-99.99,0.000000,,2013-05-18 08:42:00,
2013-05-18 04:52:00,76.0,72.0,-100.00,ENE,76,1.0,-999.0,88,0.00,,,-99.99,0.000000,,2013-05-18 08:52:00,
2013-05-18 05:02:00,76.0,72.0,-100.00,SE,144,1.0,-999.0,89,0.00,,,-99.99,0.000000,,2013-05-18 09:02:00,
2013-05-18 05:11:00,75.0,72.0,-100.00,SSW,211,1.0,-999.0,89,0.00,,,-99.99,0.000000,,2013-05-18 09:11:00,
2013-05-18 05:22:00,75.0,72.0,-100.00,SSW,211,1.0,-999.0,89,0.00,,,-99.99,0.000000,,2013-05-18 09:22:00,
2013-05-18 05:33:00,75.0,72.0,-100.00,WNW,289,1.0,-999.0,90,0.00,,,-99.99,0.000000,,2013-05-18 09:33:00,
2013-05-18 05:43:00,75.0,72.0,-100.00,NNE,23,1.0,-999.0,91,0.00,,,-99.99,0.000000,,2013-05-18 09:43:00,
2013-05-18 05:53:00,75.0,72.0,-100.00,NNE,23,1.0,-999.0,91,0.00,,,-99.99,0.000000,,2013-05-18 09:53:00,
2013-05-18 06:03:00,75.0,72.0,-100.00,NNW,342,1.0,-999.0,91,0.00,,,-99.99,0.000000,,2013-05-18 10:03:00,
2013-05-18 06:12:00,74.0,72.0,-100.00,NE,41,1.0,-999.0,92,0.00,,,-99.99,0.000000,,2013-05-18 10:12:00,
2013-05-18 06:23:00,74.0,72.0,-100.00,NE,41,1.0,-999.0,92,0.00,,,-99.99,0.000000,,2013-05-18 10:23:00,
2013-05-18 06:33:00,74.0,72.0,-100.00,NE,42,2.0,-999.0,92,0.00,,,-99.99,0.000000,,2013-05-18 10:33:00,
2013-05-18 06:42:00,74.0,72.0,-100.00,NE,38,1.0,-999.0,92,0.00,,,-99.99,0.400000,,2013-05-18 10:42:00,
2013-05-18 06:53:00,74.0,72.0,-100.00,NE,38,1.0,-999.0,92,0.00,,,-99.99,0.400000,,2013-05-18 10:53:00,
2013-05-18 07:03:00,74.0,72.0,-100.00,South,174,1.0,-999.0,93,0.00,,,-99.99,3.200000,,2013-05-18 11:03:00,
2013-05-18 07:12:00,75.0,73.0,-100.00,SW,215,1.0,-999.0,93,0.00,,,-99.99,11.200000,,2013-05-18 11:12:00,
2013-05-18 07:22:00,75.0,73.0,-100.00,SW,215,1.0,-999.0,93,0.00,,,-99.99,11.200000,,2013-05-18 11:22:00,
2013-05-18 07:33:00,75.0,73.0,-100.00,ESE,106,1.0,-999.0,93,0.00,,,-99.99,51.400002,,2013-05-18 11:33:00,
2013-05-18 07:42:00,76.0,74.0,-100.00,SSE,155,2.0,-999.0,93,0.00,,,-99.99,107.500000,,2013-05-18 11:42:00,
2013-05-18 07:52:00,76.0,74.0,-100.00,SSE,155,2.0,-999.0,93,0.00,,,-99.99,107.500000,,2013-05-18 11:52:00,
2013-05-18 08:02:00,78.0,75.0,-100.00,South,185,2.0,-999.0,91,0.00,,,-99.99,142.899994,,2013-05-18 12:02:00,
2013-05-18 08:12:00,79.0,76.0,-100.00,South,180,3.0,-999.0,88,0.00,,,-99.99,204.100006,,2013-05-18 12:12:00,
2013-05-18 08:23:00,79.0,76.0,-100.00,South,180,3.0,-999.0,88,0.00,,,-99.99,204.100006,,2013-05-18 12:23:00,
2013-05-18 08:33:00,80.0,76.0,-100.00,South,189,3.0,-999.0,85,0.00,,,-99.99,241.300003,,2013-05-18 12:33:00,
2013-05-18 08:42:00,81.0,75.0,-100.00,South,186,3.0,-999.0,82,0.00,,,-99.99,288.200012,,2013-05-18 12:42:00,
2013-05-18 08:52:00,81.0,75.0,-100.00,South,186,3.0,-999.0,82,0.00,,,-99.99,288.200012,,2013-05-18 12:52:00,
2013-05-18 09:01:00,82.0,75.0,-100.00,SSW,202,3.0,-999.0,80,0.00,,,-99.99,225.899994,,2013-05-18 13:01:00,
2013-05-18 09:11:00,81.0,75.0,-100.00,South,177,4.0,-999.0,79,0.00,,,-99.99,157.800003,,2013-05-18 13:11:00,
2013-05-18 09:21:00,81.0,75.0,-100.00,South,177,4.0,-999.0,79,0.00,,,-99.99,157.800003,,2013-05-18 13:21:00,
2013-05-18 09:33:00,82.0,75.0,-100.00,SSE,166,5.0,-999.0,78,0.00,,,-99.99,504.000000,,2013-05-18 13:33:00,
2013-05-18 09:43:00,83.0,75.0,-100.00,SSE,159,5.0,-999.0,75,0.00,,,-99.99,568.299988,,2013-05-18 13:43:00,
2013-05-18 09:53:00,83.0,75.0,-100.00,SSE,159,5.0,-999.0,75,0.00,,,-99.99,568.299988,,2013-05-18 13:53:00,
2013-05-18 10:03:00,84.0,74.0,-100.00,South,176,5.0,-999.0,73,0.00,,,-99.99,548.099976,,2013-05-18 14:03:00,
2013-05-18 10:12:00,85.0,74.0,-100.00,SSE,158,4.0,-999.0,70,0.00,,,-99.99,698.000000,,2013-05-18 14:12:00,
2013-05-18 10:22:00,85.0,74.0,-100.00,SSE,158,4.0,-999.0,70,0.00,,,-99.99,698.000000,,2013-05-18 14:22:00,
2013-05-18 10:33:00,86.0,74.0,-100.00,SSE,155,6.0,-999.0,68,0.00,,,-99.99,797.000000,,2013-05-18 14:33:00,
2013-05-18 10:42:00,85.0,75.0,-100.00,SE,124,8.0,-999.0,70,0.00,,,-99.99,694.299988,,2013-05-18 14:42:00,
2013-05-18 10:54:00,85.0,75.0,-100.00,SE,124,8.0,-999.0,70,0.00,,,-99.99,694.299988,,2013-05-18 14:54:00,
2013-05-18 11:03:00,84.0,75.0,-100.00,East,101,9.0,-999.0,74,0.00,,,-99.99,534.299988,,2013-05-18 15:03:00,
2013-05-18 11:13:00,82.0,75.0,-100.00,ESE,103,8.0,-999.0,81,0.08,,,-99.99,253.199997,,2013-05-18 15:13:00,
2013-05-18 11:23:00,82.0,75.0,-100.00,ESE,103,8.0,-999.0,81,0.08,,,-99.99,253.199997,,2013-05-18 15:23:00,
2013-05-18 11:33:00,81.0,76.0,-100.00,SE,136,5.0,-999.0,84,0.11,,,-99.99,330.000000,,2013-05-18 15:33:00,
2013-05-18 11:43:00,82.0,77.0,-100.00,ESE,120,6.0,-999.0,85,0.00,,,-99.99,779.000000,,2013-05-18 15:43:00,
2013-05-18 11:53:00,82.0,77.0,-100.00,ESE,120,6.0,-999.0,85,0.00,,,-99.99,779.000000,,2013-05-18 15:53:00,
2013-05-18 12:03:00,83.0,76.0,-100.00,SE,130,7.0,-999.0,79,0.00,,,-99.99,618.799988,,2013-05-18 16:03:00,
2013-05-18 12:13:00,84.0,75.0,-100.00,SE,134,7.0,-999.0,75,0.00,,,-99.99,699.799988,,2013-05-18 16:13:00,
2013-05-18 12:22:00,84.0,75.0,-100.00,SE,134,7.0,-999.0,75,0.00,,,-99.99,699.799988,,2013-05-18 16:22:00,
2013-05-18 12:33:00,84.0,75.0,-100.00,South,188,7.0,-999.0,74,0.00,,,-99.99,660.299988,,2013-05-18 16:33:00,
2013-05-18 12:42:00,83.0,75.0,-100.00,SW,230,5.0,-999.0,77,0.00,,,-99.99,496.899994,,2013-05-18 16:42:00,
2013-05-18 12:52:00,83.0,75.0,-100.00,SW,230,5.0,-999.0,77,0.00,,,-99.99,496.899994,,2013-05-18 16:52:00,
2013-05-18 13:02:00,83.0,75.0,-100.00,SW,222,6.0,-999.0,76,0.00,,,-99.99,321.700012,,2013-05-18 17:02:00,
2013-05-18 13:12:00,83.0,75.0,-100.00,SSE,168,5.0,-999.0,76,0.00,,,-99.99,611.400024,,2013-05-18 17:12:00,
2013-05-18 13:22:00,83.0,75.0,-100.00,SSE,168,5.0,-999.0,76,0.00,,,-99.99,611.400024,,2013-05-18 17:22:00,
2013-05-18 13:32:00,84.0,74.0,-100.00,SE,146,8.0,-999.0,71,0.00,,,-99.99,666.500000,,2013-05-18 17:32:00,
2013-05-18 13:42:00,85.0,74.0,-100.00,SSE,148,8.0,-999.0,69,0.00,,,-99.99,652.799988,,2013-05-18 17:42:00,
2013-05-18 13:52:00,85.0,74.0,-100.00,SSE,148,8.0,-999.0,69,0.00,,,-99.99,652.799988,,2013-05-18 17:52:00,
2013-05-18 14:01:00,85.0,74.0,-100.00,SE,129,8.0,-999.0,70,0.00,,,-99.99,625.299988,,2013-05-18 18:01:00,
2013-05-18 14:12:00,84.0,73.0,-100.00,SE,145,9.0,-999.0,69,0.00,,,-99.99,280.700012,,2013-05-18 18:12:00,
2013-05-18 14:21:00,84.0,73.0,-100.00,SE,145,9.0,-999.0,69,0.00,,,-99.99,280.700012,,2013-05-18 18:21:00,
2013-05-18 14:32:00,84.0,73.0,-100.00,SE,128,10.0,-999.0,70,0.00,,,-99.99,328.899994,,2013-05-18 18:32:00,
2013-05-18 14:42:00,85.0,74.0,-100.00,SE,137,9.0,-999.0,68,0.00,,,-99.99,878.000000,,2013-05-18 18:42:00,
2013-05-18 14:52:00,85.0,74.0,-100.00,SE,137,9.0,-999.0,68,0.00,,,-99.99,878.000000,,2013-05-18 18:52:00,
2013-05-18 15:02:00,86.0,74.0,-100.00,SSE,148,9.0,-999.0,66,0.00,,,-99.99,833.000000,,2013-05-18 19:02:00,
2013-05-18 15:12:00,84.0,73.0,-100.00,SE,144,11.0,-999.0,68,0.00,,,-99.99,255.300003,,2013-05-18 19:12:00,
2013-05-18 15:22:00,84.0,73.0,-100.00,SE,144,11.0,-999.0,68,0.00,,,-99.99,255.300003,,2013-05-18 19:22:00,
2013-05-18 15:32:00,83.0,73.0,-100.00,SE,141,9.0,-999.0,70,0.00,,,-99.99,110.000000,,2013-05-18 19:32:00,
2013-05-18 15:42:00,82.0,73.0,-100.00,SE,133,9.0,-999.0,72,0.00,,,-99.99,101.599998,,2013-05-18 19:42:00,
2013-05-18 15:52:00,82.0,73.0,-100.00,SE,133,9.0,-999.0,72,0.00,,,-99.99,101.599998,,2013-05-18 19:52:00,
2013-05-18 16:02:00,82.0,73.0,-100.00,SE,130,9.0,-999.0,73,0.00,,,-99.99,84.300003,,2013-05-18 20:02:00,
2013-05-18 16:11:00,81.0,73.0,-100.00,SE,124,9.0,-999.0,75,0.00,,,-99.99,82.400002,,2013-05-18 20:11:00,
2013-05-18 16:22:00,81.0,73.0,-100.00,SE,124,9.0,-999.0,75,0.00,,,-99.99,82.400002,,2013-05-18 20:22:00,
2013-05-18 16:32:00,81.0,73.0,-100.00,SE,137,9.0,-999.0,75,0.00,,,-99.99,85.199997,,2013-05-18 20:32:00,
2013-05-18 16:42:00,81.0,73.0,-100.00,SE,141,9.0,-999.0,75,0.00,,,-99.99,99.699997,,2013-05-18 20:42:00,
2013-05-18 16:52:00,81.0,73.0,-100.00,SE,141,9.0,-999.0,75,0.00,,,-99.99,99.699997,,2013-05-18 20:52:00,
2013-05-18 17:01:00,82.0,73.0,-100.00,SE,135,8.0,-999.0,74,0.00,,,-99.99,326.500000,,2013-05-18 21:01:00,
2013-05-18 17:12:00,83.0,73.0,-100.00,SE,138,9.0,-999.0,72,0.00,,,-99.99,639.799988,,2013-05-18 21:12:00,
2013-05-18 17:21:00,83.0,73.0,-100.00,SE,138,9.0,-999.0,72,0.00,,,-99.99,639.799988,,2013-05-18 21:21:00,
2013-05-18 17:32:00,84.0,73.0,-100.00,SE,133,7.0,-999.0,69,0.00,,,-99.99,551.299988,,2013-05-18 21:32:00,
2013-05-18 17:43:00,84.0,72.0,-100.00,SE,134,9.0,-999.0,68,0.00,,,-99.99,450.600006,,2013-05-18 21:43:00,
2013-05-18 17:53:00,84.0,72.0,-100.00,SE,134,9.0,-999.0,68,0.00,,,-99.99,450.600006,,2013-05-18 21:53:00,
2013-05-18 18:03:00,83.0,72.0,-100.00,SE,141,8.0,-999.0,68,0.00,,,-99.99,376.299988,,2013-05-18 22:03:00,
2013-05-18 18:12:00,83.0,72.0,-100.00,SE,142,9.0,-999.0,68,0.00,,,-99.99,406.399994,,2013-05-18 22:12:00,
2013-05-18 18:23:00,83.0,72.0,-100.00,SE,142,9.0,-999.0,68,0.00,,,-99.99,406.399994,,2013-05-18 22:23:00,
2013-05-18 18:33:00,83.0,72.0,-100.00,SSE,151,11.0,-999.0,68,0.00,,,-99.99,347.100006,,2013-05-18 22:33:00,
2013-05-18 18:42:00,82.0,72.0,-100.00,SE,140,9.0,-999.0,71,0.00,,,-99.99,110.099998,,2013-05-18 22:42:00,
2013-05-18 18:53:00,82.0,72.0,-100.00,SE,140,9.0,-999.0,71,0.00,,,-99.99,110.099998,,2013-05-18 22:53:00,
2013-05-18 19:01:00,82.0,71.0,-100.00,SE,141,9.0,-999.0,71,0.00,,,-99.99,90.199997,,2013-05-18 23:01:00,
2013-05-18 19:12:00,81.0,71.0,-100.00,SE,131,7.0,-999.0,71,0.00,,,-99.99,50.799999,,2013-05-18 23:12:00,
2013-05-18 19:22:00,81.0,71.0,-100.00,SE,131,7.0,-999.0,71,0.00,,,-99.99,50.799999,,2013-05-18 23:22:00,
2013-05-18 19:32:00,81.0,71.0,-100.00,SE,130,6.0,-999.0,71,0.00,,,-99.99,20.000000,,2013-05-18 23:32:00,
2013-05-18 19:42:00,81.0,71.0,-100.00,SE,142,6.0,-999.0,72,0.00,,,-99.99,10.600000,,2013-05-18 23:42:00,
2013-05-18 19:53:00,81.0,71.0,-100.00,SE,142,6.0,-999.0,72,0.00,,,-99.99,10.600000,,2013-05-18 23:53:00,
2013-05-18 20:01:00,81.0,71.0,-100.00,SE,136,8.0,-999.0,72,0.00,,,-99.99,11.400000,,2013-05-19 00:01:00,
2013-05-18 20:12:00,81.0,71.0,-100.00,SE,137,8.0,-999.0,72,0.00,,,-99.99,12.300000,,2013-05-19 00:12:00,
2013-05-18 20:21:00,81.0,71.0,-100.00,SE,137,8.0,-999.0,72,0.00,,,-99.99,12.300000,,2013-05-19 00:21:00,
2013-05-18 20:32:00,81.0,71.0,-100.00,SE,133,7.0,-999.0,73,0.00,,,-99.99,2.400000,,2013-05-19 00:32:00,
2013-05-18 20:41:00,80.0,71.0,-100.00,SSE,149,6.0,-999.0,73,0.00,,,-99.99,0.000000,,2013-05-19 00:41:00,
2013-05-18 20:52:00,80.0,71.0,-100.00,SSE,149,6.0,-999.0,73,0.00,,,-99.99,0.000000,,2013-05-19 00:52:00,
2013-05-18 21:01:00,80.0,71.0,-100.00,SSE,147,5.0,-999.0,73,0.00,,,-99.99,0.000000,,2013-05-19 01:01:00,
2013-05-18 21:11:00,80.0,71.0,-100.00,SE,139,6.0,-999.0,73,0.00,,,-99.99,0.000000,,2013-05-19 01:11:00,
2013-05-18 21:21:00,80.0,71.0,-100.00,SE,139,6.0,-999.0,73,0.00,,,-99.99,0.000000,,2013-05-19 01:21:00,
2013-05-18 21:32:00,80.0,71.0,-100.00,SSE,148,6.0,-999.0,73,0.00,,,-99.99,0.000000,,2013-05-19 01:32:00,
2013-05-18 21:42:00,80.0,71.0,-100.00,SE,139,5.0,-999.0,74,0.00,,,-99.99,0.000000,,2013-05-19 01:42:00,
2013-05-18 21:52:00,80.0,71.0,-100.00,SE,139,5.0,-999.0,74,0.00,,,-99.99,0.000000,,2013-05-19 01:52:00,
2013-05-18 22:01:00,80.0,71.0,-100.00,SE,139,5.0,-999.0,74,0.00,,,-99.99,0.000000,,2013-05-19 02:01:00,
2013-05-18 22:11:00,80.0,71.0,-100.00,SSE,150,5.0,-999.0,75,0.00,,,-99.99,0.000000,,2013-05-19 02:11:00,
2013-05-18 22:22:00,80.0,71.0,-100.00,SSE,150,5.0,-999.0,75,0.00,,,-99.99,0.000000,,2013-05-19 02:22:00,
2013-05-18 22:32:00,80.0,71.0,-100.00,SE,131,6.0,-999.0,75,0.00,,,-99.99,0.000000,,2013-05-19 02:32:00,
2013-05-18 22:42:00,79.0,71.0,-100.00,SE,135,5.0,-999.0,76,0.00,,,-99.99,0.000000,,2013-05-19 02:42:00,
2013-05-18 22:52:00,79.0,71.0,-100.00,SE,135,5.0,-999.0,76,0.00,,,-99.99,0.000000,,2013-05-19 02:52:00,
2013-05-18 23:01:00,79.0,71.0,-100.00,SE,131,4.0,-999.0,76,0.00,,,-99.99,0.000000,,2013-05-19 03:01:00,
2013-05-18 23:11:00,79.0,71.0,-100.00,SE,129,5.0,-999.0,77,0.00,,,-99.99,0.000000,,2013-05-19 03:11:00,
2013-05-18 23:22:00,79.0,71.0,-100.00,SE,129,5.0,-999.0,77,0.00,,,-99.99,0.000000,,2013-05-19 03:22:00,
2013-05-18 23:33:00,79.0,72.0,-100.00,SE,136,6.0,-999.0,77,0.00,,,-99.99,0.000000,,2013-05-19 03:33:00,
2013-05-18 23:42:00,79.0,71.0,-100.00,SE,134,4.0,-999.0,78,0.00,,,-99.99,0.000000,,2013-05-19 03:42:00,
2013-05-18 23:53:00,79.0,71.0,-100.00,SE,134,4.0,-999.0,78,0.00,,,-99.99,0.000000,,2013-05-19 03:53:00,